Address 0x00e8fb205bdab2a3f6da38802c706bf604cc3d9f

 
Txn Hash
Block
From
To
Value [Txn Fee]
0xd609b97e8f5fc9c9056dc247f81325af7eb6ad7eee5679039261eb6b95a9898572153252021-05-07 13:40:227 hrs 46 mins ago0x00e8fb205bdab2a3f6da38802c706bf604cc3d9fOUT PancakeSwap: Router v20 BNB0.00156649
0x83f206b5e86cee5a4d18267a41a322edfad36371bdda4915f9a59d1a4aebdf0472136012021-05-07 12:06:579 hrs 20 mins ago0x00e8fb205bdab2a3f6da38802c706bf604cc3d9fOUT PancakeSwap: Router v20 BNB0.00126051
0x163387d96ba5945e8ad9e21e292ad8c161b53eb4fc48aca0fba09f049f77236472135882021-05-07 12:06:119 hrs 20 mins ago0x00e8fb205bdab2a3f6da38802c706bf604cc3d9fOUT 0xdb29192fc2b487bb5185e155752328d4f249743c0 BNB0.00022226
0x1a95e7e9f425dd88735fc32ee6b43c974ead0de5b88461bc72efe4a58a3d07ac71970232021-05-06 22:09:4123 hrs 17 mins ago0x00e8fb205bdab2a3f6da38802c706bf604cc3d9fOUT PancakeSwap: Router v20 BNB0.00138423
0x264f9b21e15b5df771d71fdc84af86ed9fb805bdde9b300c1fa1369e81685efc71961892021-05-06 21:27:5923 hrs 58 mins ago0x00e8fb205bdab2a3f6da38802c706bf604cc3d9fOUT PancakeSwap: Router0 BNB0.001180315
0x7c215cea9a5c9b01eb2f2051e0476045c83ec8472775f5633cf4fa07d19c9a6b71952422021-05-06 20:40:381 day 46 mins ago0x00e8fb205bdab2a3f6da38802c706bf604cc3d9fOUT PancakeSwap: Router v20 BNB0.00126806
0xc8cb02187b3630b5b32cf37c53cc441479487b0809765def5ed5b80e6b7f8a7671941282021-05-06 19:43:001 day 1 hr ago0x00e8fb205bdab2a3f6da38802c706bf604cc3d9fOUT PancakeSwap: Router v20 BNB0.00157368
0x961f08ae0412aa4acbb31691f8dabb1532652e0cc2515485d50bf7c5eb13baac71936772021-05-06 19:20:271 day 2 hrs ago0x00e8fb205bdab2a3f6da38802c706bf604cc3d9fOUT PancakeSwap: Router v20 BNB0.001677235
0x0f7faddf1936826ccd1de89992a5554faa270c0fe88e48ef5973f43eba3eabcf71936602021-05-06 19:19:361 day 2 hrs ago0x00e8fb205bdab2a3f6da38802c706bf604cc3d9fOUT 0xa2b3c5a2d0645aa13a5b5f1cf6405b058bb062680 BNB0.00022274
0x3092a50379b5e6e97d572ed7c778434b06df225888c8e9b4f0d8db3faa297d9b71934762021-05-06 19:10:201 day 2 hrs ago0x00e8fb205bdab2a3f6da38802c706bf604cc3d9fOUT PancakeSwap: Router v20 BNB0.00131873
0xfa5d27111be42514c51a8de5c3ab28578a6de0a3136c845642ac3d5fc650fedd71892222021-05-06 15:34:041 day 5 hrs ago0x00e8fb205bdab2a3f6da38802c706bf604cc3d9fOUT PancakeSwap: Router v20 BNB0.00156175
0xf9b451fba5172b875573ed204041f61451e34396edfd81cdab7891c58242bae071875232021-05-06 13:56:161 day 7 hrs ago0x00e8fb205bdab2a3f6da38802c706bf604cc3d9fOUT PancakeSwap: Router v20 BNB0.001368325
0x2b7a9db029654c129b54f686e35a6512b518bfe3e6c5e26f60f587be98b550ad71865842021-05-06 12:55:591 day 8 hrs ago0x00e8fb205bdab2a3f6da38802c706bf604cc3d9fOUT PancakeSwap: Router v20 BNB0.0012731
0xaa1018f3bcc410825866b596bc96b855cdf1d42bde74a326ce9020ad4c40ff3e71742262021-05-06 2:32:071 day 18 hrs ago0x00e8fb205bdab2a3f6da38802c706bf604cc3d9fOUT PancakeSwap: Router v20 BNB0.00157668
0xdb52a739d47bedd3966237cea693dff32fbf0bdd447dab64626cca31776797f571742182021-05-06 2:31:431 day 18 hrs ago0x00e8fb205bdab2a3f6da38802c706bf604cc3d9fOUT 0x966802abcfe821ca102a215d83867ff2f1bd149e0 BNB0.00022215
0x410190fd746692165716a091f0413cb7cf11cbe84db881e6fa13be5b715600a471717792021-05-06 0:27:281 day 20 hrs ago0x00e8fb205bdab2a3f6da38802c706bf604cc3d9fOUT PancakeSwap: Router v20 BNB0.00156175
0xff40135db399a3e8626f8e6ebe4da4f293a18e66bec5c3b9692ac0c6f620b1a071702362021-05-05 23:07:171 day 22 hrs ago0x00e8fb205bdab2a3f6da38802c706bf604cc3d9fOUT PancakeSwap: Router v20 BNB0.00158471
0xad54e490b9d559f91f23b9eb50a1303f348ac43940d09a51e51107f9ae138df571685012021-05-05 21:39:031 day 23 hrs ago0x00e8fb205bdab2a3f6da38802c706bf604cc3d9fOUT PancakeSwap: Router0 BNB0.00130474
0x758480533c4745716e0c205e375b74bdec01721367e523c15859fa9a4c0473ec71684932021-05-05 21:38:391 day 23 hrs ago0x00e8fb205bdab2a3f6da38802c706bf604cc3d9fOUT Binance: BUSD Stablecoin0 BNB0.00022203
0xdae8a24b4fce58bdf87874db2d5e3df6abb215cbe5a2e68247cfe0660b1291e171673402021-05-05 20:40:592 days 45 mins ago0x00e8fb205bdab2a3f6da38802c706bf604cc3d9fOUT PancakeSwap: Router v20 BNB0.00123151
0x8097946683c9431250c52df25b4d2821f511fb3dd6e8261fdf1defc87c7fc39d71673342021-05-05 20:40:412 days 46 mins ago0x00e8fb205bdab2a3f6da38802c706bf604cc3d9fOUT 0x2c1cc53e9dd9200cfb989cefebc12220418100cc0 BNB0.000222625
0xf776af08f9d3a5504aa4bf61d7c37407851411a9a2304c0dc09bc3057a0dde3271663682021-05-05 19:52:062 days 1 hr ago0x00e8fb205bdab2a3f6da38802c706bf604cc3d9fOUT PancakeSwap: Router v20 BNB0.001223905
0x889f0a7e75a7c774952e0feea2c2d75ae965bf8b1bc323a32787925d9583322671644082021-05-05 17:57:582 days 3 hrs ago0x00e8fb205bdab2a3f6da38802c706bf604cc3d9fOUT PancakeSwap: Router v20 BNB0.001616755
0xab54ff30f2414ce678eefdd0093e5284647f82f8bc7dc45ebb0d800036045acc71644032021-05-05 17:57:432 days 3 hrs ago0x00e8fb205bdab2a3f6da38802c706bf604cc3d9fOUT 0x3916984fa787d89b648ccd8d60b5ff07e0e8e4f40 BNB0.00022274
0x08653ea48f6b666d1d8584d989fa0b284d83e697ed02854de87544102320729971634832021-05-05 17:11:432 days 4 hrs ago0x00e8fb205bdab2a3f6da38802c706bf604cc3d9fOUT PancakeSwap: Router v20 BNB0.00450406
[ Download CSV Export 
Latest 1 internal transaction
Parent Txn Hash Block From To Value
0x2ff6f1ed3496520d4c1e2aa135e1313bded9921bbd660680421505943a010b5c66503262021-04-17 17:15:1820 days 4 hrs ago BSC: Token Hub0x00e8fb205bdab2a3f6da38802c706bf604cc3d9f0.285 BNB
[ Download CSV Export 
Loading

Contract Name:
0 BNB

Compiler Version
0

Optimization Enabled:
0 BNB

Other Settings:
-NA-
Block Transaction Gas Used Reward
Age Block Fee Address BC Fee Address Voting Power Jailed Incoming
Block Uncle Number Difficulty Gas Used Reward
Loading
Loading
Make sure to use the "Vote Down" button for any spammy posts, and the "Vote Up" for interesting conversations.